TimeEST,TemperatureF,Dew PointF,Humidity,Sea Level PressureIn,VisibilityMPH,Wind Direction,Wind SpeedMPH,Gust SpeedMPH,PrecipitationIn,Events,Conditions,WindDirDegrees,DateUTC
12:15 AM,28.4,19.4,69,30.29,10.0,NE,5.8,-,N/A,,Overcast,40,2014-01-02 05:15:00
12:35 AM,28.4,19.4,69,30.28,10.0,NE,6.9,-,N/A,Snow,Light Snow,50,2014-01-02 05:35:00
12:55 AM,26.6,19.4,74,30.27,5.0,NE,6.9,-,0.01,Snow,Light Snow,50,2014-01-02 05:55:00
1:15 AM,26.6,19.4,74,30.27,5.0,NE,6.9,-,N/A,Snow,Light Snow,40,2014-01-02 06:15:00
1:35 AM,26.6,19.4,74,30.27,5.0,NE,5.8,-,0.02,Snow,Light Snow,50,2014-01-02 06:35:00
1:55 AM,26.6,21.2,80,30.27,5.0,NE,6.9,-,0.02,Snow,Light Snow,40,2014-01-02 06:55:00
2:15 AM,26.6,21.2,80,30.26,10.0,NE,6.9,-,N/A,Snow,Light Snow,50,2014-01-02 07:15:00
2:35 AM,24.8,21.2,86,30.26,10.0,ENE,6.9,-,N/A,Snow,Light Snow,70,2014-01-02 07:35:00
2:55 AM,24.8,21.2,86,30.25,5.0,ENE,5.8,-,N/A,Snow,Light Snow,70,2014-01-02 07:55:00
3:15 AM,24.8,21.2,86,30.24,2.5,ENE,5.8,-,0.02,Snow,Light Snow,60,2014-01-02 08:15:00
3:35 AM,24.8,21.2,86,30.22,8.0,NE,6.9,-,0.02,,Overcast,50,2014-01-02 08:35:00
3:55 AM,24.8,21.2,86,30.21,10.0,ENE,8.1,-,0.02,,Overcast,60,2014-01-02 08:55:00
4:15 AM,24.8,21.2,86,30.21,10.0,NE,9.2,-,N/A,Snow,Light Snow,50,2014-01-02 09:15:00
4:35 AM,24.8,21.2,86,30.20,10.0,NE,6.9,-,N/A,,Overcast,50,2014-01-02 09:35:00
4:55 AM,24.8,19.4,80,30.20,10.0,NE,10.4,-,N/A,,Overcast,50,2014-01-02 09:55:00
5:15 AM,23.0,19.4,86,30.19,8.0,NE,6.9,-,N/A,Snow,Light Snow,50,2014-01-02 10:15:00
5:35 AM,23.0,19.4,86,30.18,6.0,ENE,11.5,16.1,N/A,Snow,Light Snow,60,2014-01-02 10:35:00
5:55 AM,23.0,19.4,86,30.17,5.0,NE,6.9,17.3,0.01,Snow,Light Snow,50,2014-01-02 10:55:00
6:15 AM,23.0,21.2,93,30.17,5.0,ENE,9.2,-,0.01,Snow,Light Snow,60,2014-01-02 11:15:00
6:35 AM,23.0,21.2,93,30.17,8.0,NE,9.2,17.3,0.02,Snow,Light Snow,40,2014-01-02 11:35:00
6:55 AM,23.0,19.4,86,30.17,10.0,NE,10.4,18.4,0.02,,Overcast,50,2014-01-02 11:55:00
7:15 AM,23.0,19.4,86,30.16,10.0,NE,9.2,-,N/A,,Overcast,50,2014-01-02 12:15:00
7:35 AM,23.0,19.4,86,30.16,10.0,NE,9.2,-,N/A,Snow,Light Snow,50,2014-01-02 12:35:00
7:55 AM,23.0,19.4,86,30.16,3.0,NE,11.5,18.4,N/A,Snow,Light Snow,40,2014-01-02 12:55:00
8:15 AM,23.0,19.4,86,30.15,3.0,NE,10.4,16.1,N/A,Snow,Light Snow,50,2014-01-02 13:15:00
8:35 AM,23.0,19.4,86,30.14,5.0,NE,9.2,19.6,0.01,Snow,Light Snow,40,2014-01-02 13:35:00
8:55 AM,23.0,19.4,86,30.14,5.0,NE,13.8,18.4,0.01,Snow,Light Snow,40,2014-01-02 13:55:00
9:15 AM,23.0,19.4,86,30.14,5.0,NE,9.2,18.4,N/A,Snow,Light Snow,50,2014-01-02 14:15:00
9:35 AM,23.0,19.4,86,30.13,4.0,NE,10.4,-,0.01,Snow,Light Snow,50,2014-01-02 14:35:00
9:55 AM,23.0,19.4,86,30.12,7.0,NE,10.4,20.7,0.01,Snow,Light Snow,50,2014-01-02 14:55:00
10:15 AM,23.0,19.4,86,30.11,8.0,NE,9.2,-,N/A,,Overcast,50,2014-01-02 15:15:00
10:35 AM,23.0,19.4,86,30.09,2.0,NE,11.5,17.3,0.03,Snow,Light Snow,40,2014-01-02 15:35:00
10:55 AM,23.0,19.4,86,30.06,4.0,NE,9.2,-,0.04,,Overcast,40,2014-01-02 15:55:00
11:15 AM,23.0,19.4,86,30.05,10.0,NE,10.4,17.3,N/A,,Overcast,40,2014-01-02 16:15:00
11:35 AM,23.0,19.4,86,30.03,1.5,NE,9.2,18.4,0.03,Snow,Light Snow,40,2014-01-02 16:35:00
11:55 AM,23.0,21.2,93,30.01,1.2,NNE,10.4,-,0.10,Snow,Light Snow,30,2014-01-02 16:55:00
12:15 PM,23.0,21.2,93,29.99,10.0,NNE,11.5,18.4,N/A,,Overcast,30,2014-01-02 17:15:00
12:35 PM,23.0,19.4,86,29.98,7.0,NE,9.2,17.3,N/A,,Overcast,40,2014-01-02 17:35:00
12:55 PM,23.0,19.4,86,29.96,10.0,NNE,13.8,19.6,N/A,,Overcast,30,2014-01-02 17:55:00
1:15 PM,24.8,19.4,80,29.95,10.0,NE,12.7,20.7,N/A,,Overcast,40,2014-01-02 18:15:00
1:35 PM,23.0,19.4,86,29.94,6.0,NE,9.2,19.6,N/A,,Overcast,40,2014-01-02 18:35:00
1:55 PM,23.0,21.2,93,29.93,10.0,NNE,10.4,20.7,N/A,,Overcast,30,2014-01-02 18:55:00
2:15 PM,23.0,21.2,93,29.92,10.0,NE,11.5,17.3,N/A,,Overcast,40,2014-01-02 19:15:00
2:35 PM,23.0,19.4,86,29.91,10.0,NE,16.1,21.9,N/A,,Overcast,40,2014-01-02 19:35:00
2:55 PM,23.0,19.4,86,29.88,10.0,NE,11.5,19.6,N/A,,Overcast,50,2014-01-02 19:55:00
3:15 PM,23.0,19.4,86,29.89,10.0,NNE,13.8,18.4,N/A,,Overcast,30,2014-01-02 20:15:00
3:35 PM,24.8,19.4,80,29.88,10.0,NE,13.8,20.7,N/A,Snow,Light Snow,40,2014-01-02 20:35:00
3:55 PM,23.0,19.4,86,29.87,9.0,NE,15.0,19.6,N/A,,Overcast,40,2014-01-02 20:55:00
4:15 PM,23.0,19.4,86,29.87,10.0,NNE,12.7,25.3,N/A,,Overcast,30,2014-01-02 21:15:00
4:35 PM,23.0,19.4,86,29.87,10.0,NNE,11.5,20.7,N/A,Snow,Light Snow,30,2014-01-02 21:35:00
4:55 PM,23.0,19.4,86,29.86,10.0,NE,12.7,19.6,N/A,,Overcast,40,2014-01-02 21:55:00
5:15 PM,23.0,19.4,86,29.84,10.0,NNE,10.4,21.9,N/A,Snow,Light Snow,30,2014-01-02 22:15:00
5:35 PM,21.2,17.6,86,29.83,10.0,NNE,12.7,17.3,N/A,Snow,Light Snow,30,2014-01-02 22:35:00
5:55 PM,21.2,17.6,86,29.85,9.0,NNE,13.8,19.6,N/A,,Overcast,30,2014-01-02 22:55:00
6:15 PM,21.2,17.6,86,29.83,10.0,NE,13.8,19.6,N/A,,Overcast,40,2014-01-02 23:15:00
6:35 PM,19.4,17.6,93,29.83,10.0,NNE,10.4,19.6,N/A,Snow,Light Snow,30,2014-01-02 23:35:00
6:55 PM,19.4,17.6,93,29.82,7.0,NNE,9.2,20.7,N/A,Snow,Light Snow,20,2014-01-02 23:55:00
7:15 PM,19.4,17.6,93,29.81,2.0,NNE,12.7,17.3,0.02,Snow,Light Snow,30,2014-01-03 00:15:00
7:35 PM,19.4,17.6,93,29.81,1.8,NNE,11.5,19.6,0.12,Snow,Light Snow,30,2014-01-03 00:35:00
7:55 PM,19.4,15.8,86,29.79,1.2,NNE,15.0,20.7,0.45,Snow,Snow,20,2014-01-03 00:55:00
8:15 PM,17.6,14.0,86,29.78,0.5,NNE,12.7,19.6,0.73,Snow,Snow,30,2014-01-03 01:15:00
8:35 PM,17.6,14.0,86,29.76,0.5,NNE,12.7,25.3,2.85,Snow,Snow,20,2014-01-03 01:35:00
8:55 PM,17.6,14.0,86,29.74,0.8,NE,11.5,18.4,3.62,Snow,Snow,40,2014-01-03 01:55:00
9:15 PM,15.8,12.2,86,29.74,0.5,NNE,12.7,20.7,0.62,Snow,Snow,30,2014-01-03 02:15:00
9:35 PM,15.8,12.2,86,29.73,0.8,NNE,16.1,24.2,1.27,Snow,Snow,30,2014-01-03 02:35:00
9:55 PM,14.0,12.2,93,29.72,0.5,NNE,13.8,21.9,2.03,Snow,Snow,20,2014-01-03 02:55:00
10:15 PM,14.0,10.4,86,29.72,0.8,NNE,12.7,25.3,0.39,Snow,Snow,30,2014-01-03 03:15:00
10:35 PM,14.0,10.4,86,29.72,0.8,NNE,12.7,28.8,0.92,Snow,Light Snow,30,2014-01-03 03:35:00
10:55 PM,12.2,8.6,85,29.72,0.5,NNE,17.3,25.3,1.41,Snow,Snow,30,2014-01-03 03:55:00
11:15 PM,12.2,8.6,85,29.71,0.8,NNE,17.3,25.3,0.45,Snow,Snow,30,2014-01-03 04:15:00
11:35 PM,12.2,6.8,79,29.70,0.8,NE,16.1,23.0,0.86,Snow,Light Snow,40,2014-01-03 04:35:00
11:55 PM,10.4,6.8,85,29.69,0.8,NNE,16.1,25.3,1.19,Snow,Light Snow,30,2014-01-03 04:55:00